Mount Vernon, IL

12:17 PM CST on February 07, 2016 (GMT -0600)
Mount Vernon

Weather History for KMVN - May, 2014

Change the Weather History Date:

Sunday, May 4, 2014

  Actual Average Record
Temperature  
Mean Temperature 62 °F -  
Max Temperature 80 °F 71 °F 87 °F (2012)
Min Temperature 44 °F 51 °F 33 °F (2005)
Degree Days  
Heating Degree Days 3    
Growing Degree Days 12 (Base 50)    
Moisture  
Dew Point 45 °F    
Average Humidity 58    
Maximum Humidity 100    
Minimum Humidity 37    
Precipitation  
Precipitation 0.00 in - - ()
Sea Level Pressure  
Sea Level Pressure 29.94 in    
Wind  
Wind Speed 3 mph (ENE)    
Max Wind Speed 14 mph    
Max Gust Speed 20 mph    
Visibility 10 miles    
Events      
Averages and records for this station are not official NWS values.
T = Trace of Precipitation, MM = Missing Value Source: NWS Daily Summary

Daily Weather History Graph

Daily Weather History Graph

Search for Another Location

Airport or City:

Trip Planner

Search our weather history database for the weather conditions in past years. The results will help you decide how hot, cold, wet, or windy it might be!

Date:

Astronomy

May. 04, 2014 Rise Set
Actual Time 5:55 AM CDT 7:49 PM CDT
Civil Twilight 5:26 AM CDT 8:18 PM CDT
Nautical Twilight 4:51 AM CDT 8:53 PM CDT
Astronomical Twilight 4:14 AM CDT 9:31 PM CDT
Moon 10:19 AM CDT (5/4) No Moon Set
Length of Visible Light 14h 52m
Length of Day
13h 54m
Waxing Crescent, 28% of the Moon is Illuminated
May 4
Waxing Crescent
May 6
First Quarter
May 14
Full
May 21
Last Quarter
May 28
New

Hourly Weather History & Observations

Time (CDT) Temp. Dew Point Humidity Pressure Visibility Wind Dir Wind Speed Gust Speed Precip Events Conditions
12:15 AM 46.4 °F 39.2 °F 76% 29.96 in 10.0 mi Calm Calm - N/A   Clear
12:35 AM 48.2 °F 37.4 °F 66% 29.96 in 10.0 mi Calm Calm - N/A   Clear
12:55 AM 46.4 °F 39.2 °F 76% 29.96 in 10.0 mi Calm Calm - N/A   Clear
1:15 AM 46.4 °F 37.4 °F 71% 29.96 in 10.0 mi Calm Calm - N/A   Clear
1:35 AM 48.2 °F 39.2 °F 71% 29.95 in 10.0 mi Calm Calm - N/A   Clear
1:55 AM 46.4 °F 37.4 °F 71% 29.96 in 10.0 mi Calm Calm - N/A   Clear
2:15 AM 46.4 °F 37.4 °F 71% 29.95 in 10.0 mi Calm Calm - N/A   Clear
2:35 AM 46.4 °F 37.4 °F 71% 29.94 in 10.0 mi Calm Calm - N/A   Clear
2:55 AM 46.4 °F 37.4 °F 71% 29.94 in 10.0 mi Calm Calm - N/A   Clear
3:15 AM 46.4 °F 37.4 °F 71% 29.94 in 10.0 mi Calm Calm - N/A   Clear
3:35 AM 46.4 °F 37.4 °F 71% 29.94 in 10.0 mi Calm Calm - N/A   Clear
3:55 AM 44.6 °F 35.6 °F 71% 29.94 in 10.0 mi Calm Calm - N/A   Clear
4:15 AM 44.6 °F 37.4 °F 76% 29.94 in 10.0 mi Calm Calm - N/A   Clear
4:35 AM 46.4 °F 35.6 °F 66% 29.94 in 10.0 mi Calm Calm - N/A   Clear
4:55 AM 44.6 °F 37.4 °F 76% 29.94 in 10.0 mi Calm Calm - N/A   Clear
5:15 AM 44.6 °F 35.6 °F 71% 29.95 in 10.0 mi Calm Calm - N/A   Clear
5:35 AM 46.4 °F 37.4 °F 71% 29.96 in 10.0 mi Calm Calm - N/A   Clear
5:55 AM 44.6 °F 37.4 °F 76% 29.96 in 10.0 mi Calm Calm - N/A   Clear
6:15 AM 44.6 °F 37.4 °F 76% 29.96 in 10.0 mi Calm Calm - N/A   Clear
6:35 AM 46.4 °F 37.4 °F 71% 29.97 in 10.0 mi Calm Calm - N/A   Clear
6:55 AM 48.2 °F 39.2 °F 71% 29.97 in 10.0 mi Calm Calm - N/A   Clear
7:15 AM 50.0 °F 41.0 °F 71% 29.98 in 10.0 mi Calm Calm - N/A   Clear
7:35 AM 55.4 °F 42.8 °F 63% 29.98 in 10.0 mi NNE 5.8 mph - N/A   Clear
7:55 AM 57.2 °F 42.8 °F 59% 29.99 in 10.0 mi Calm Calm - N/A   Clear
8:15 AM 60.8 °F 42.8 °F 52% 30.00 in 10.0 mi Calm Calm - N/A   Clear
8:35 AM 62.6 °F 42.8 °F 48% 30.01 in 10.0 mi Calm Calm - N/A   Clear
8:55 AM 64.4 °F 44.6 °F 49% 30.01 in 10.0 mi East 4.6 mph - N/A   Clear
9:15 AM - - N/A% 30.00 in 10.0 mi ESE 3.5 mph - N/A   Clear
9:35 AM - - N/A% 30.00 in 10.0 mi ENE 6.9 mph - N/A   Clear
9:55 AM - - N/A% 30.00 in 10.0 mi ENE 4.6 mph - N/A   Clear
10:15 AM 69.8 °F 46.4 °F 43% 30.00 in 10.0 mi ENE 4.6 mph - N/A   Clear
10:35 AM 69.8 °F 48.2 °F 46% 30.00 in 10.0 mi NE 6.9 mph - N/A   Clear
10:55 AM 69.8 °F 48.2 °F 46% 30.01 in 10.0 mi ENE 5.8 mph - N/A   Clear
11:15 AM 71.6 °F 50.0 °F 46% 30.00 in 10.0 mi ENE 6.9 mph - N/A   Clear
11:35 AM 51.8 °F 50.0 °F 94% 30.00 in 10.0 mi ENE 4.6 mph - N/A   Clear
11:55 AM 50.0 °F 50.0 °F 100% 30.00 in 10.0 mi SE 5.8 mph - N/A   Clear
12:15 PM 51.8 °F 50.0 °F 94% 29.98 in 10.0 mi ENE 4.6 mph - N/A   Clear
12:35 PM 75.2 °F 51.8 °F 44% 29.98 in 10.0 mi ESE 5.8 mph - N/A   Clear
12:55 PM 75.2 °F 51.8 °F 44% 29.97 in 10.0 mi ESE 3.5 mph - N/A   Clear
1:15 PM 77.0 °F 50.0 °F 39% 29.97 in 10.0 mi SSE 5.8 mph - N/A   Clear
1:35 PM 77.0 °F 51.8 °F 41% 29.96 in 10.0 mi SE 5.8 mph - N/A   Clear
1:55 PM 78.8 °F 51.8 °F 39% 29.96 in 10.0 mi Calm Calm - N/A   Clear
2:15 PM 78.8 °F 51.8 °F 39% 29.95 in 10.0 mi Calm Calm - N/A   Clear
2:35 PM 78.8 °F 51.8 °F 39% 29.94 in 10.0 mi ESE 4.6 mph - N/A   Clear
2:55 PM 80.6 °F 51.8 °F 37% 29.93 in 10.0 mi NE 5.8 mph - N/A   Clear
3:15 PM 78.8 °F 53.6 °F 42% 29.93 in 10.0 mi ENE 5.8 mph - N/A   Clear
3:35 PM 69.8 °F 53.6 °F 56% 29.92 in 10.0 mi ENE 8.1 mph - N/A   Clear
3:55 PM 78.8 °F 53.6 °F 42% 29.92 in 5.0 mi NE 9.2 mph - N/A   Clear
4:15 PM 78.8 °F 53.6 °F 42% 29.91 in 10.0 mi NE 5.8 mph - N/A   Clear
4:35 PM 78.8 °F 53.6 °F 42% 29.90 in 10.0 mi NE 11.5 mph 16.1 mph N/A   Clear
4:55 PM 78.8 °F 53.6 °F 42% 29.88 in 10.0 mi East 9.2 mph - N/A   Clear
5:15 PM - - N/A% 29.87 in 10.0 mi East 8.1 mph - N/A   Clear
5:35 PM - - N/A% 29.87 in 10.0 mi East 9.2 mph - N/A   Clear
5:55 PM - - N/A% 29.87 in 10.0 mi ENE 9.2 mph - N/A   Clear
6:15 PM - - N/A% 29.87 in 10.0 mi ENE 8.1 mph - N/A   Clear
6:35 PM - - N/A% 29.86 in 10.0 mi NE 11.5 mph - N/A   Clear
6:55 PM - - N/A% 29.87 in 10.0 mi ENE 9.2 mph - N/A   Clear
7:15 PM - - N/A% 29.87 in 10.0 mi ENE 9.2 mph - N/A   Clear
7:35 PM - - N/A% 29.86 in 10.0 mi ENE 9.2 mph - N/A   Clear
7:55 PM - - N/A% 29.87 in 10.0 mi NNE 9.2 mph - N/A   Clear
8:15 PM 69.8 °F 48.2 °F 46% 29.88 in 10.0 mi NE 6.9 mph - N/A   Clear
8:35 PM 68.0 °F 48.2 °F 49% 29.88 in 10.0 mi ENE 9.2 mph - N/A   Clear
8:55 PM 68.0 °F 46.4 °F 46% 29.88 in 10.0 mi ENE 13.8 mph 19.6 mph N/A   Clear
9:15 PM 68.0 °F 46.4 °F 46% 29.89 in 10.0 mi NE 13.8 mph - N/A   Clear
9:35 PM 66.2 °F 46.4 °F 49% 29.90 in 10.0 mi NE 12.7 mph - N/A   Clear
9:55 PM 66.2 °F 46.4 °F 49% 29.90 in 10.0 mi ENE 11.5 mph - N/A   Clear
10:15 PM 66.2 °F 46.4 °F 49% 29.90 in 10.0 mi ENE 11.5 mph - N/A   Clear
10:35 PM 64.4 °F 44.6 °F 49% 29.90 in 10.0 mi ENE 6.9 mph - N/A   Clear
10:55 PM 66.2 °F 44.6 °F 46% 29.89 in 10.0 mi ENE 9.2 mph - N/A   Clear
11:15 PM 64.4 °F 44.6 °F 49% 29.90 in 10.0 mi SSE 3.5 mph - N/A   Clear
11:35 PM 64.4 °F 44.6 °F 49% 29.89 in 10.0 mi ENE 10.4 mph - N/A   Clear
11:55 PM 62.6 °F 44.6 °F 52% 29.88 in 10.0 mi NE 8.1 mph - N/A   Clear